Time,TemperatureF,DewpointF,PressureIn,WindDirection,WindDirectionDegrees,WindSpeedMPH,WindSpeedGustMPH,Humidity,HourlyPrecipIn,Conditions,Clouds,dailyrainin,SoftwareType,DateUTC
2013-01-06 00:13:00,29.1,28.6,30.14,West,270,0.0,-999.0,98,-99.99,,,0.00,Acu-Link.com,2013-01-06 05:13:00,
2013-01-06 00:29:00,29.7,29.2,30.17,WSW,247,0.0,-999.0,98,-99.99,,,0.00,Acu-Link.com,2013-01-06 05:29:00,
2013-01-06 00:44:00,29.7,29.2,30.17,SSW,202,0.0,-999.0,98,-99.99,,,0.00,Acu-Link.com,2013-01-06 05:44:00,
2013-01-06 00:59:00,29.7,29.2,30.16,SW,225,0.0,-999.0,98,-99.99,,,0.00,Acu-Link.com,2013-01-06 05:59:00,
2013-01-06 01:14:00,30.0,29.5,30.18,SSE,157,0.0,-999.0,98,-99.99,,,0.00,Acu-Link.com,2013-01-06 06:14:00,
2013-01-06 01:29:00,30.0,29.5,30.16,SSW,202,0.0,-999.0,98,-99.99,,,0.00,Acu-Link.com,2013-01-06 06:29:00,
2013-01-06 01:45:00,30.4,29.9,30.16,WNW,292,0.0,-999.0,98,-99.99,,,0.00,Acu-Link.com,2013-01-06 06:45:00,
2013-01-06 02:00:00,30.6,30.1,30.15,West,270,0.0,-999.0,98,-99.99,,,0.00,Acu-Link.com,2013-01-06 07:00:00,
2013-01-06 02:15:00,30.6,30.1,30.15,SW,225,0.0,-999.0,98,-99.99,,,0.00,Acu-Link.com,2013-01-06 07:15:00,
2013-01-06 02:30:00,30.9,30.4,30.14,WNW,292,0.0,-999.0,98,-99.99,,,0.00,Acu-Link.com,2013-01-06 07:30:00,
2013-01-06 02:46:00,31.1,30.6,30.16,SSW,202,0.0,-999.0,98,-99.99,,,0.00,Acu-Link.com,2013-01-06 07:46:00,
2013-01-06 03:01:00,31.1,30.6,30.14,SSE,157,0.0,-999.0,98,-99.99,,,0.00,Acu-Link.com,2013-01-06 08:01:00,
2013-01-06 03:16:00,31.3,30.8,30.13,SW,225,0.0,-999.0,98,-99.99,,,0.00,Acu-Link.com,2013-01-06 08:16:00,
2013-01-06 03:31:00,31.3,30.8,30.13,WSW,247,0.0,-999.0,98,-99.99,,,0.00,Acu-Link.com,2013-01-06 08:31:00,
2013-01-06 03:46:00,31.3,30.8,30.12,WSW,247,0.0,-999.0,98,-99.99,,,0.00,Acu-Link.com,2013-01-06 08:46:00,
2013-01-06 04:09:00,31.5,31.0,30.11,SW,225,0.0,-999.0,98,-99.99,,,0.00,Acu-Link.com,2013-01-06 09:09:00,
2013-01-06 04:24:00,31.5,31.0,30.10,WSW,247,0.0,-999.0,98,-99.99,,,0.00,Acu-Link.com,2013-01-06 09:24:00,
2013-01-06 04:39:00,31.5,31.0,30.09,SSE,157,0.0,-999.0,98,-99.99,,,0.00,Acu-Link.com,2013-01-06 09:39:00,
2013-01-06 04:54:00,31.5,31.0,30.08,SSE,157,0.0,-999.0,98,-99.99,,,0.00,Acu-Link.com,2013-01-06 09:54:00,
2013-01-06 05:09:00,31.5,31.0,30.08,SSE,157,0.0,-999.0,98,-99.99,,,0.00,Acu-Link.com,2013-01-06 10:09:00,
2013-01-06 05:25:00,31.5,31.0,30.07,SE,135,0.0,-999.0,98,-99.99,,,0.00,Acu-Link.com,2013-01-06 10:25:00,
2013-01-06 05:40:00,31.6,31.1,30.07,NNE,22,0.0,-999.0,98,-99.99,,,0.00,Acu-Link.com,2013-01-06 10:40:00,
2013-01-06 05:55:00,32.5,32.0,30.06,SW,225,1.6,-999.0,98,-99.99,,,0.00,Acu-Link.com,2013-01-06 10:55:00,
2013-01-06 06:10:00,32.4,31.9,30.06,SSW,202,1.6,-999.0,98,-99.99,,,0.00,Acu-Link.com,2013-01-06 11:10:00,
2013-01-06 06:25:00,32.5,32.0,30.06,SSW,202,0.0,-999.0,98,-99.99,,,0.00,Acu-Link.com,2013-01-06 11:25:00,
2013-01-06 06:41:00,32.5,32.0,30.06,SW,225,0.0,-999.0,98,-99.99,,,0.00,Acu-Link.com,2013-01-06 11:41:00,
2013-01-06 06:56:00,32.7,32.2,30.06,West,270,0.0,-999.0,98,-99.99,,,0.00,Acu-Link.com,2013-01-06 11:56:00,
2013-01-06 07:11:00,32.9,32.4,30.07,SW,225,0.0,-999.0,98,-99.99,,,0.00,Acu-Link.com,2013-01-06 12:11:00,
2013-01-06 07:26:00,33.1,32.6,30.07,SSW,202,0.0,-999.0,98,-99.99,,,0.00,Acu-Link.com,2013-01-06 12:26:00,
2013-01-06 07:42:00,33.1,32.6,30.07,SSW,202,0.0,-999.0,98,-99.99,,,0.00,Acu-Link.com,2013-01-06 12:42:00,
2013-01-06 07:57:00,33.1,32.6,30.06,SSW,202,0.0,-999.0,98,-99.99,,,0.00,Acu-Link.com,2013-01-06 12:57:00,
2013-01-06 08:12:00,33.6,33.1,30.06,ESE,112,0.0,-999.0,98,-99.99,,,0.00,Acu-Link.com,2013-01-06 13:12:00,
2013-01-06 08:27:00,34.2,33.7,30.06,South,180,0.0,-999.0,98,-99.99,,,0.00,Acu-Link.com,2013-01-06 13:27:00,
2013-01-06 08:42:00,34.5,34.0,30.06,West,270,0.0,-999.0,98,-99.99,,,0.00,Acu-Link.com,2013-01-06 13:42:00,
2013-01-06 08:58:00,34.9,34.4,30.05,NNE,22,0.0,-999.0,98,-99.99,,,0.00,Acu-Link.com,2013-01-06 13:58:00,
2013-01-06 09:13:00,35.4,34.9,30.05,WNW,292,4.3,-999.0,98,-99.99,,,0.00,Acu-Link.com,2013-01-06 14:13:00,
2013-01-06 09:28:00,36.1,35.6,30.05,NNW,337,0.0,-999.0,98,-99.99,,,0.00,Acu-Link.com,2013-01-06 14:28:00,
2013-01-06 09:43:00,36.3,35.8,30.06,East,90,1.6,-999.0,98,-99.99,,,0.00,Acu-Link.com,2013-01-06 14:43:00,
2013-01-06 09:58:00,36.1,35.6,30.05,NNW,337,1.6,-999.0,98,-99.99,,,0.00,Acu-Link.com,2013-01-06 14:58:00,
2013-01-06 10:14:00,36.9,36.3,30.05,SSW,202,4.3,-999.0,98,-99.99,,,0.00,Acu-Link.com,2013-01-06 15:14:00,
2013-01-06 10:29:00,37.6,37.1,30.03,SW,225,0.0,-999.0,98,-99.99,,,0.00,Acu-Link.com,2013-01-06 15:29:00,
2013-01-06 10:44:00,38.3,37.8,30.02,West,270,0.0,-999.0,98,-99.99,,,0.00,Acu-Link.com,2013-01-06 15:44:00,
2013-01-06 10:59:00,38.8,38.3,30.02,WNW,292,2.7,-999.0,98,-99.99,,,0.00,Acu-Link.com,2013-01-06 15:59:00,
2013-01-06 11:15:00,39.4,38.9,30.01,West,270,3.1,-999.0,98,-99.99,,,0.00,Acu-Link.com,2013-01-06 16:15:00,
2013-01-06 11:30:00,39.9,39.1,30.00,ENE,67,0.0,-999.0,97,-99.99,,,0.00,Acu-Link.com,2013-01-06 16:30:00,
2013-01-06 11:45:00,40.5,38.0,29.99,WSW,247,3.8,-999.0,91,-99.99,,,0.00,Acu-Link.com,2013-01-06 16:45:00,
2013-01-06 12:00:00,41.5,38.3,29.98,North,0,0.0,-999.0,88,-99.99,,,0.00,Acu-Link.com,2013-01-06 17:00:00,
2013-01-06 12:15:00,41.7,37.2,29.96,WNW,292,0.0,-999.0,84,-99.99,,,0.00,Acu-Link.com,2013-01-06 17:15:00,
2013-01-06 12:31:00,42.8,37.1,29.95,North,0,0.0,-999.0,80,-99.99,,,0.00,Acu-Link.com,2013-01-06 17:31:00,
2013-01-06 12:46:00,43.2,36.4,29.95,West,270,1.6,-999.0,77,-99.99,,,0.00,Acu-Link.com,2013-01-06 17:46:00,
2013-01-06 13:01:00,43.9,36.8,29.94,SSW,202,1.6,-999.0,76,-99.99,,,0.00,Acu-Link.com,2013-01-06 18:01:00,
2013-01-06 13:16:00,44.8,36.7,29.94,North,0,2.7,-999.0,73,-99.99,,,0.00,Acu-Link.com,2013-01-06 18:16:00,
2013-01-06 13:31:00,44.8,36.0,29.93,SSW,202,2.7,-999.0,71,-99.99,,,0.00,Acu-Link.com,2013-01-06 18:31:00,
2013-01-06 13:47:00,45.1,36.3,29.92,NE,45,3.8,-999.0,71,-99.99,,,0.00,Acu-Link.com,2013-01-06 18:47:00,
2013-01-06 14:03:00,45.5,35.9,29.92,SW,225,2.2,-999.0,69,-99.99,,,0.00,Acu-Link.com,2013-01-06 19:03:00,
2013-01-06 14:18:00,45.7,36.1,29.91,West,270,1.1,-999.0,69,-99.99,,,0.00,Acu-Link.com,2013-01-06 19:18:00,
2013-01-06 14:33:00,45.7,35.7,29.91,West,270,1.6,-999.0,68,-99.99,,,0.00,Acu-Link.com,2013-01-06 19:33:00,
2013-01-06 14:48:00,45.9,35.5,29.91,WNW,292,2.2,-999.0,67,-99.99,,,0.00,Acu-Link.com,2013-01-06 19:48:00,
2013-01-06 15:04:00,46.0,35.3,29.91,NW,315,3.1,-999.0,66,-99.99,,,0.00,Acu-Link.com,2013-01-06 20:04:00,
2013-01-06 15:19:00,46.2,34.7,29.91,NNW,337,2.7,-999.0,64,-99.99,,,0.00,Acu-Link.com,2013-01-06 20:19:00,
2013-01-06 15:34:00,46.0,34.6,29.91,NE,45,4.3,-999.0,64,-99.99,,,0.00,Acu-Link.com,2013-01-06 20:34:00,
2013-01-06 15:49:00,45.9,34.4,29.91,WSW,247,0.0,-999.0,64,-99.99,,,0.00,Acu-Link.com,2013-01-06 20:49:00,
2013-01-06 16:04:00,45.0,33.9,29.91,SW,225,0.0,-999.0,65,-99.99,,,0.00,Acu-Link.com,2013-01-06 21:04:00,
2013-01-06 16:20:00,44.6,34.0,29.91,WNW,292,0.0,-999.0,66,-99.99,,,0.00,Acu-Link.com,2013-01-06 21:20:00,
2013-01-06 16:35:00,43.7,33.5,29.91,WNW,292,0.0,-999.0,67,-99.99,,,0.00,Acu-Link.com,2013-01-06 21:35:00,
2013-01-06 16:50:00,43.2,33.7,29.92,West,270,1.6,-999.0,69,-99.99,,,0.00,Acu-Link.com,2013-01-06 21:50:00,
2013-01-06 17:05:00,42.4,33.4,29.93,North,0,0.0,-999.0,70,-99.99,,,0.00,Acu-Link.com,2013-01-06 22:05:00,
2013-01-06 17:20:00,41.9,33.2,29.93,NNE,22,0.0,-999.0,71,-99.99,,,0.00,Acu-Link.com,2013-01-06 22:20:00,
2013-01-06 17:36:00,41.0,33.0,29.94,ENE,67,0.0,-999.0,73,-99.99,,,0.00,Acu-Link.com,2013-01-06 22:36:00,
2013-01-06 17:51:00,41.4,33.7,29.94,West,270,1.1,-999.0,74,-99.99,,,0.00,Acu-Link.com,2013-01-06 22:51:00,
2013-01-06 18:06:00,41.0,33.7,29.94,WNW,292,0.0,-999.0,75,-99.99,,,0.00,Acu-Link.com,2013-01-06 23:06:00,
2013-01-06 18:21:00,40.8,33.9,29.94,WNW,292,0.0,-999.0,76,-99.99,,,0.00,Acu-Link.com,2013-01-06 23:21:00,
2013-01-06 18:36:00,40.6,33.7,29.95,South,180,0.0,-999.0,76,-99.99,,,0.00,Acu-Link.com,2013-01-06 23:36:00,
2013-01-06 18:52:00,40.8,34.2,29.95,WSW,247,0.0,-999.0,77,-99.99,,,0.00,Acu-Link.com,2013-01-06 23:52:00,
2013-01-06 19:07:00,41.0,34.0,29.95,WSW,247,0.0,-999.0,76,-99.99,,,0.00,Acu-Link.com,2013-01-07 00:07:00,
2013-01-06 19:22:00,40.6,33.7,29.96,SW,225,0.0,-999.0,76,-99.99,,,0.00,Acu-Link.com,2013-01-07 00:22:00,
2013-01-06 19:37:00,39.9,33.6,29.95,East,90,0.0,-999.0,78,-99.99,,,0.00,Acu-Link.com,2013-01-07 00:37:00,
2013-01-06 19:53:00,39.4,33.7,29.96,NW,315,0.0,-999.0,80,-99.99,,,0.00,Acu-Link.com,2013-01-07 00:53:00,
2013-01-06 20:08:00,39.4,34.0,29.96,West,270,0.0,-999.0,81,-99.99,,,0.00,Acu-Link.com,2013-01-07 01:08:00,
2013-01-06 20:23:00,39.0,33.7,29.96,SW,225,0.0,-999.0,81,-99.99,,,0.00,Acu-Link.com,2013-01-07 01:23:00,
2013-01-06 20:38:00,38.3,33.3,29.96,SSW,202,0.0,-999.0,82,-99.99,,,0.00,Acu-Link.com,2013-01-07 01:38:00,
2013-01-06 20:53:00,37.9,34.1,29.96,WSW,247,0.0,-999.0,86,-99.99,,,0.00,Acu-Link.com,2013-01-07 01:53:00,
2013-01-06 21:09:00,37.2,34.0,29.96,ESE,112,0.0,-999.0,88,-99.99,,,0.00,Acu-Link.com,2013-01-07 02:09:00,
2013-01-06 21:24:00,36.7,33.5,29.96,SW,225,0.0,-999.0,88,-99.99,,,0.00,Acu-Link.com,2013-01-07 02:24:00,
2013-01-06 21:39:00,36.5,33.6,29.96,South,180,0.0,-999.0,89,-99.99,,,0.00,Acu-Link.com,2013-01-07 02:39:00,
2013-01-06 21:54:00,35.2,34.2,29.97,SW,225,0.0,-999.0,96,-99.99,,,0.00,Acu-Link.com,2013-01-07 02:54:00,
2013-01-06 22:09:00,34.0,33.5,29.97,WSW,247,0.0,-999.0,98,-99.99,,,0.00,Acu-Link.com,2013-01-07 03:09:00,
2013-01-06 22:25:00,32.9,32.4,29.98,SW,225,0.0,-999.0,98,-99.99,,,0.00,Acu-Link.com,2013-01-07 03:25:00,
2013-01-06 22:40:00,32.2,31.7,29.98,SSW,202,0.0,-999.0,98,-99.99,,,0.00,Acu-Link.com,2013-01-07 03:40:00,
2013-01-06 22:55:00,31.6,31.1,29.98,SW,225,0.0,-999.0,98,-99.99,,,0.00,Acu-Link.com,2013-01-07 03:55:00,
2013-01-06 23:10:00,31.1,30.6,29.98,SSE,157,0.0,-999.0,98,-99.99,,,0.00,Acu-Link.com,2013-01-07 04:10:00,
2013-01-06 23:26:00,30.6,30.1,29.98,South,180,0.0,-999.0,98,-99.99,,,0.00,Acu-Link.com,2013-01-07 04:26:00,
2013-01-06 23:41:00,30.6,30.1,29.99,West,270,0.0,-999.0,98,-99.99,,,0.00,Acu-Link.com,2013-01-07 04:41:00,
2013-01-06 23:56:00,30.4,29.9,29.99,South,180,0.0,-999.0,98,-99.99,,,0.00,Acu-Link.com,2013-01-07 04:56:00,